| time (UTC) | temp C | wind direction | speed KPH | gust KPH | rain 1hr cm | rain 24hr cm | rain mn cm | humidity % | barometer mb |
| 20260505180120 | 13 | 106 | 0.0 | 0.0 | 0.00 | 0.00 | 0.00 | 77 | 1004.2 |
| 20260505174516 | 13 | 31 | 0.0 | 0.0 | 0.00 | 0.00 | 0.00 | 79 | 1003.8 |
| 20260505173021 | 13 | 355 | 0.0 | 0.0 | 0.00 | 0.00 | 0.00 | 79 | 1003.6 |
| 20260505171513 | 13 | 27 | 0.0 | 0.0 | 0.00 | 0.00 | 0.00 | 80 | 1003.2 |
| 20260505170013 | 13 | 37 | 0.0 | 0.0 | 0.00 | 0.00 | 0.00 | 80 | 1003.2 |
| 20260505164510 | 13 | 5 | 0.0 | 0.0 | 0.00 | 0.00 | 0.00 | 82 | 1002.9 |
| 20260505163009 | 13 | 23 | 0.0 | 0.0 | 0.00 | 0.00 | 0.00 | 81 | 1002.3 |
| 20260505161503 | 14 | 24 | 0.0 | 0.0 | 0.00 | 0.00 | 0.00 | 81 | 1001.7 |
| 20260505160109 | 15 | 40 | 0.0 | 1.6 | 0.00 | 0.00 | 0.00 | 81 | 1001.1 |
| 20260505153052 | 16 | 12 | 0.0 | 1.6 | 0.00 | 0.00 | 0.00 | 81 | 1000.5 |
| 20260505151547 | 17 | 57 | 0.0 | 0.0 | 0.00 | 0.00 | 0.00 | 80 | 1000.0 |
| 20260505124525 | 20 | 79 | 0.0 | 0.0 | 0.00 | 0.00 | 0.00 | 81 | 997.7 |
| 20260505123023 | 20 | 33 | 0.0 | 0.0 | 0.00 | 0.00 | 0.00 | 80 | 997.5 |
| 20260505121524 | 20 | 14 | 0.0 | 0.0 | 0.00 | 0.00 | 0.00 | 79 | 997.3 |
| 20260505120019 | 21 | 14 | 0.0 | 0.0 | 0.00 | 0.00 | 0.00 | 77 | 997.2 |
| 20260505114515 | 21 | 14 | 0.0 | 0.0 | 0.00 | 0.00 | 0.00 | 76 | 996.9 |
| 20260505113013 | 21 | 14 | 0.0 | 0.0 | 0.00 | 0.00 | 0.00 | 74 | 996.4 |
| 20260505111511 | 22 | 239 | 0.0 | 0.0 | 0.00 | 0.00 | 0.00 | 73 | 995.8 |
| 20260505101513 | 22 | 240 | 0.0 | 0.0 | 0.00 | 0.00 | 0.00 | 73 | 995.0 |
| 20260505100007 | 22 | 67 | 0.0 | 0.0 | 0.00 | 0.00 | 0.00 | 73 | 994.9 |
| 20260505094517 | 22 | 304 | 0.0 | 0.0 | 0.00 | 0.00 | 0.00 | 73 | 994.8 |
| 20260505093006 | 22 | 186 | 0.0 | 0.0 | 0.00 | 0.00 | 0.00 | 73 | 994.8 |
| 20260505091506 | 22 | 33 | 0.0 | 0.0 | 0.00 | 0.00 | 0.00 | 73 | 994.8 |
| 20260505090001 | 22 | 90 | 0.0 | 0.0 | 0.00 | 0.00 | 0.00 | 73 | 994.9 |
| 20260505084500 | 22 | 288 | 0.0 | 1.6 | 0.00 | 0.00 | 0.00 | 73 | 995.1 |
| 20260505083100 | 22 | 309 | 0.0 | 1.6 | 0.00 | 0.00 | 0.00 | 73 | 995.2 |
| 20260505081558 | 22 | 15 | 0.0 | 0.0 | 0.00 | 0.00 | 0.00 | 73 | 995.4 |
| 20260505080105 | 22 | 156 | 0.0 | 0.0 | 0.00 | 0.00 | 0.00 | 73 | 995.5 |
| 20260505074555 | 22 | 320 | 0.0 | 1.6 | 0.00 | 0.00 | 0.00 | 73 | 995.6 |
| 20260505073055 | 22 | 20 | 0.0 | 0.0 | 0.00 | 0.00 | 0.00 | 73 | 995.7 |
| 20260505071551 | 22 | 209 | 0.0 | 0.0 | 0.00 | 0.00 | 0.00 | 73 | 995.9 |
| 20260505070054 | 22 | 339 | 0.0 | 0.0 | 0.00 | 0.00 | 0.00 | 72 | 996.2 |
| 20260505064547 | 22 | 76 | 0.0 | 0.0 | 0.00 | 0.00 | 0.00 | 71 | 996.4 |
| 20260505063107 | 22 | 249 | 0.0 | 0.0 | 0.00 | 0.00 | 0.00 | 72 | 996.4 |
| 20260505061545 | 22 | 306 | 0.0 | 0.0 | 0.00 | 0.00 | 0.00 | 71 | 996.5 |
| 20260505060042 | 22 | 68 | 0.0 | 0.0 | 0.00 | 0.00 | 0.00 | 71 | 996.7 |
| 20260505054541 | 23 | 65 | 0.0 | 0.0 | 0.00 | 0.00 | 0.00 | 71 | 997.0 |
| 20260505053040 | 23 | 218 | 0.0 | 0.0 | 0.00 | 0.00 | 0.00 | 70 | 997.1 |
| 20260505051535 | 23 | 130 | 0.0 | 0.0 | 0.00 | 0.00 | 0.00 | 70 | 997.1 |
| 20260505041547 | 23 | 355 | 0.0 | 0.0 | 0.00 | 0.00 | 0.00 | 69 | 997.7 |
| 20260505040038 | 23 | 61 | 0.0 | 1.6 | 0.00 | 0.00 | 0.00 | 68 | 997.8 |
| 20260505034531 | 23 | 270 | 0.0 | 0.0 | 0.00 | 0.00 | 0.00 | 67 | 997.8 |
| 20260505033029 | 24 | 178 | 0.0 | 0.0 | 0.00 | 0.00 | 0.00 | 67 | 997.6 |
| 20260505031538 | 24 | 109 | 0.0 | 1.6 | 0.00 | 0.00 | 0.00 | 66 | 997.6 |
| 20260505030027 | 24 | 303 | 0.0 | 0.0 | 0.00 | 0.00 | 0.00 | 65 | 997.5 |
| 20260505024526 | 25 | 63 | 0.0 | 0.0 | 0.00 | 0.00 | 0.00 | 64 | 997.1 |
| 20260505023026 | 25 | 63 | 0.0 | 0.0 | 0.00 | 0.00 | 0.00 | 64 | 997.2 |
| 20260505021525 | 25 | 136 | 0.0 | 1.6 | 0.00 | 0.00 | 0.00 | 63 | 996.9 |
| 20260505020023 | 25 | 119 | 0.0 | 1.6 | 0.00 | 0.00 | 0.00 | 62 | 996.9 |
| 20260505014531 | 25 | 280 | 0.0 | 0.0 | 0.00 | 0.00 | 0.00 | 61 | 996.9 |
| 20260505013021 | 26 | 15 | 0.0 | 1.6 | 0.00 | 0.00 | 0.00 | 60 | 997.0 |
| 20260505011521 | 26 | 221 | 0.0 | 1.6 | 0.00 | 0.00 | 0.00 | 59 | 997.1 |
| 20260505010023 | 26 | 98 | 0.0 | 1.6 | 0.00 | 0.00 | 0.00 | 59 | 997.4 |
| 20260505004520 | 26 | 334 | 0.0 | 0.0 | 0.00 | 0.00 | 0.00 | 58 | 997.3 |
| 20260505003017 | 26 | 148 | 0.0 | 0.0 | 0.00 | 0.00 | 0.00 | 56 | 997.3 |
| 20260505001516 | 27 | 121 | 0.0 | 0.0 | 0.00 | 0.00 | 0.00 | 55 | 997.6 |
| 20260505000014 | 27 | 261 | 0.0 | 0.0 | 0.00 | 0.00 | 0.00 | 55 | 997.7 |
| 20260504234513 | 27 | 138 | 0.0 | 1.6 | 0.00 | 0.00 | 0.00 | 54 | 997.7 |
| 20260504233011 | 27 | 173 | 0.0 | 0.0 | 0.00 | 0.00 | 0.00 | 54 | 997.9 |
| 20260504231510 | 27 | 142 | 0.0 | 0.0 | 0.00 | 0.00 | 0.00 | 53 | 998.0 |
| 20260504230008 | 27 | 5 | 0.0 | 0.0 | 0.00 | 0.00 | 0.00 | 53 | 998.3 |
| 20260504224506 | 27 | 112 | 0.0 | 1.6 | 0.00 | 0.00 | 0.00 | 52 | 998.4 |
| 20260504223005 | 27 | 26 | 0.0 | 0.0 | 0.00 | 0.00 | 0.00 | 53 | 998.7 |
| 20260504221504 | 27 | 145 | 0.0 | 1.6 | 0.00 | 0.00 | 0.00 | 52 | 998.7 |
| 20260504220008 | 27 | 100 | 0.0 | 0.0 | 0.00 | 0.00 | 0.00 | 51 | 998.8 |
| 20260504214600 | 27 | 169 | 0.0 | 0.0 | 0.00 | 0.00 | 0.00 | 51 | 999.1 |
| 20260504213105 | 27 | 134 | 0.0 | 0.0 | 0.00 | 0.00 | 0.00 | 50 | 999.4 |
| 20260504211601 | 27 | 115 | 0.0 | 0.0 | 0.00 | 0.00 | 0.00 | 50 | 999.4 |
| 20260504210059 | 27 | 5 | 0.0 | 0.0 | 0.00 | 0.00 | 0.00 | 48 | 999.8 |
| 20260504204555 | 28 | 184 | 0.0 | 0.0 | 0.00 | 0.00 | 0.00 | 47 | 1000.0 |
| 20260504203106 | 28 | 35 | 0.0 | 0.0 | 0.00 | 0.00 | 0.00 | 46 | 1000.3 |
| 20260504201555 | 28 | 309 | 0.0 | 1.6 | 0.00 | 0.00 | 0.00 | 47 | 1000.3 |
| 20260504200048 | 28 | 265 | 0.0 | 1.6 | 0.00 | 0.00 | 0.00 | 45 | 1000.6 |
| 20260504194544 | 28 | 56 | 0.0 | 0.0 | 0.00 | 0.00 | 0.00 | 47 | 1000.8 |
| 20260504193042 | 27 | 179 | 0.0 | 1.6 | 0.00 | 0.00 | 0.00 | 47 | 1001.1 |
| 20260504191539 | 27 | 186 | 0.0 | 1.6 | 0.00 | 0.00 | 0.00 | 47 | 1001.4 |
| 20260504190039 | 27 | 219 | 0.0 | 0.0 | 0.00 | 0.00 | 0.00 | 47 | 1001.4 |
| 20260504184533 | 26 | 171 | 0.0 | 1.6 | 0.00 | 0.00 | 0.00 | 47 | 1001.7 |
| 20260504183031 | 26 | 279 | 0.0 | 1.6 | 0.00 | 0.00 | 0.00 | 47 | 1001.9 |
| 20260504181534 | 26 | 265 | 0.0 | 0.0 | 0.00 | 0.00 | 0.00 | 47 | 1002.2 |